EW6534 Weather Reports


time (UTC)temp
C
wind
direction
speed
KPH
gust
KPH
rain 1hr
cm
rain 24hr
cm
rain mn
cm
humidity
%
barometer
mb
20260503054529 2 220 3.2 6.4 0.00 0.00 0.00 87 1018.0
20260503053028 2 220 4.8 6.4 0.00 0.00 0.00 87 1018.1
20260503051528 2 220 4.8 6.4 0.00 0.00 0.00 87 1018.2
20260503050026 2 220 4.8 6.4 0.00 0.00 0.00 87 1018.3
20260503044528 2 220 4.8 6.4 0.00 0.00 0.00 87 1018.2
20260503043022 2 220 4.8 6.4 0.00 0.00 0.00 87 1018.1
20260503041521 2 220 3.2 4.8 0.00 0.00 0.00 87 1018.1
20260503040022 2 220 1.6 3.2 0.00 0.00 0.00 86 1018.2
20260503034518 2 220 1.6 4.8 0.00 0.00 0.00 85 1018.2
20260503033015 1 302 0.0 3.2 0.00 0.00 0.00 81 1018.2
20260503031514 3 302 0.0 1.6 0.00 0.00 0.00 76 1018.2
20260503030013 3 302 1.6 4.8 0.00 0.00 0.00 76 1018.2
20260503024513 3 302 0.0 1.6 0.00 0.00 0.00 76 1018.2
20260503023033 3 302 3.2 6.4 0.00 0.00 0.00 78 1018.3
20260503021511 3 302 0.0 4.8 0.00 0.00 0.00 78 1018.1
20260503020008 3 302 1.6 3.2 0.00 0.00 0.00 79 1018.0
20260503014508 3 302 1.6 3.2 0.00 0.00 0.00 77 1017.8
20260503013008 4 302 1.6 4.8 0.00 0.00 0.00 72 1017.7
20260503011508 5 302 4.8 12.9 0.00 0.00 0.00 68 1017.5
20260503010006 5 304 6.4 9.7 0.00 0.00 0.00 68 1017.4
20260503004507 6 314 9.7 14.5 0.00 0.00 0.00 64 1017.3
20260503003005 6 296 9.7 16.1 0.00 0.00 0.00 62 1017.2
20260503001505 6 302 9.7 19.3 0.00 0.00 0.00 60 1017.1
20260503000005 7 303 16.1 20.9 0.00 0.00 0.00 57 1017.0
20260502234502 7 303 12.9 20.9 0.00 0.00 0.00 56 1016.9
20260502233002 8 330 9.7 20.9 0.00 0.00 0.00 56 1016.8
20260502231502 8 318 17.7 25.7 0.00 0.00 0.00 54 1016.7
20260502230120 8 301 16.1 22.5 0.00 0.00 0.00 53 1016.7
20260502224559 8 306 12.9 27.4 0.00 0.00 0.00 54 1016.7
20260502223059 8 293 19.3 25.7 0.00 0.00 0.00 53 1016.6
20260502221557 8 312 19.3 25.7 0.00 0.00 0.00 51 1016.6
20260502220057 8 282 17.7 22.5 0.00 0.00 0.00 51 1016.5
20260502214557 8 292 19.3 27.4 0.00 0.00 0.00 50 1016.3
20260502213055 9 277 14.5 27.4 0.00 0.00 0.00 52 1016.3
20260502211556 8 315 19.3 30.6 0.00 0.00 0.00 51 1016.3
20260502210054 9 291 19.3 29.0 0.00 0.00 0.00 52 1016.1
20260502204556 8 275 19.3 25.7 0.00 0.00 0.00 52 1016.2
20260502203052 8 339 16.1 25.7 0.00 0.00 0.00 51 1016.2
20260502201549 9 324 16.1 30.6 0.00 0.00 0.00 50 1016.3
20260502200052 9 317 9.7 27.4 0.00 0.00 0.00 49 1016.5
20260502194648 10 5 16.1 24.1 0.00 0.00 0.00 50 1016.5
20260502193048 10 285 22.5 37.0 0.00 0.00 0.00 57 1016.5
20260502191557 9 316 14.5 37.0 0.00 0.00 0.00 49 1016.6
20260502190045 10 304 19.3 30.6 0.00 0.00 0.00 50 1016.7
20260502184542 8 319 17.7 30.6 0.00 0.00 0.00 55 1016.8
20260502183042 8 298 14.5 27.4 0.00 0.00 0.00 52 1016.9
20260502181548 8 290 17.7 27.4 0.00 0.00 0.00 54 1017.0
20260502163029 8 297 12.9 30.6 0.00 0.00 0.00 56 1017.5
20260502161526 8 303 19.3 29.0 0.00 0.00 0.00 58 1017.6
20260502151513 7 277 14.5 27.4 0.00 0.03 0.00 59 1017.8
20260502123038 4 277 14.5 19.3 0.00 0.03 0.00 76 1017.3
20260502121524 3 277 12.9 17.7 0.00 0.03 0.00 79 1017.1
20260502114517 3 270 11.3 16.1 0.00 0.03 0.00 84 1016.9
20260502113014 3 282 9.7 12.9 0.00 0.03 0.00 85 1016.7
20260502111509 2 279 8.0 12.9 0.00 0.03 0.00 85 1016.7
20260502110006 3 273 6.4 11.3 0.00 0.03 0.00 83 1016.8
20260502104511 3 273 4.8 11.3 0.00 0.03 0.00 82 1016.7
20260502103003 3 273 1.6 6.4 0.00 0.03 0.00 84 1016.6
20260502101501 3 273 1.6 6.4 0.00 0.03 0.00 84 1016.6
20260502080104 2 273 1.6 4.8 0.00 0.03 0.00 85 1016.4
20260502070050 2 273 3.2 4.8 0.00 0.03 0.00 88 1016.4
20260502064548 2 273 4.8 6.4 0.00 0.03 0.00 88 1016.6